STARLINK-11565 [DTC] (62912 NORAD) Tracking and Keplerian Element Data

This shows tracking and keplerian element data for the satellite.

Feedback or suggestion? Click here.




ElementValue
Catalog62912
NameSTARLINK-11565 [DTC]
Epoch Orbit5057
Epoch Day353.68248867
Epoch Year2025
RAAN109.5115
Inclination42.9991
Eccentricity0.0001168
Argument of Perigee290.7434
Mean Anonmoly69.3308
Mean Motion15.70870096
Decay Rate0.00130236
L11 62912U 25027F 25353.68248867 .00130236 00000+0 10014-2 0 9995
L22 62912 42.9991 109.5115 0001168 290.7434 69.3308 15.70870096 50572



Live tracking and technical data element details for STARLINK-11565 [DTC] (NORAD 62912). STARLINK-11565 [DTC] can be tracked NOW for your location showing map with azimuth and elevation plus other details from your city location.







IsCatalogInMostPopularTable: catalog: 62912, numindb: 4
Update: records affected: 1



GetName: 62912 STARLINK-11565 [DTC]

Hit Count: updated at: Sun, 08 Feb 2026 08:53:50 GMT